#timestamp,LO_Frequency,Hit,StdDev 
1548471615.2,286047001.3,N
1548471635.0,286047001.8,N
1548471635.9,286047001.8,N
1548471655.8,286047004.1,N
1548471675.6,286047004.4,N
1548471695.4,286046999.7,N
1548471715.3,286047001.4,N
1548471735.1,286047001.4,N
1548471755.8,286047004.7,N
1548471775.7,286047004.8,N
1548471795.5,286047005.2,N
1548471815.4,286047005.8,Y
1548471835.2,286047001.8,P
1548471855.0,286047001.6,P
1548471855.9,286047001.6,P
1548471875.8,286047001.6,Y
1548471895.6,286047000.7,P
1548471915.5,286047001.1,N
1548471935.3,286046999.2,N
1548471955.1,286046997.4,N
1548471975.9,286046998.7,N
1548471995.7,286047000.8,N
1548472015.5,286047000.6,N
1548472035.4,286046999.9,N
1548472055.2,286047002.7,N
1548472075.1,286047000.1,N
1548472076.0,286047000.1,N
1548472095.8,286047001.1,N
1548472115.6,286047000.8,N
1548472135.5,286046998.2,N
1548472155.3,286046998.1,N
1548472175.1,286047002.8,N
1548472195.9,286047000.2,N
1548472215.7,286046998.9,N
1548472235.6,286047001.1,N
1548472255.4,286047002.0,N
1548472275.2,286047001.5,N
1548472295.1,286047001.3,N
1548472296.0,286047001.3,N
1548472315.8,286047002.0,N
1548472335.6,286047004.3,Y
1548472355.5,286047001.9,P
1548472375.3,286047002.6,P
1548472395.2,286047001.8,N
1548472415.9,286047003.8,Y
1548472435.7,286047000.5,P
1548472455.6,286046999.4,N
1548472475.4,286046998.1,N
1548472495.2,286046997.0,N
1548472515.1,286046997.5,N
1548472516.0,286046997.5,N
1548472535.8,286046997.6,N
1548472555.7,286046996.7,N
1548472575.5,286046999.1,N
1548472595.3,286046999.6,N
1548472615.2,286047000.7,N
1548472635.0,286046998.6,N
1548472635.9,286046998.6,N
1548472655.8,286047000.8,N
1548472675.6,286047000.7,N
1548472695.4,286047001.0,N
1548472715.3,286047000.7,N
1548472735.1,286046996.6,N
1548472755.8,286046996.9,N
1548472775.7,286046996.6,N
1548472795.5,286046998.7,N
1548472815.4,286046999.9,N
1548472835.2,286047000.9,N
1548472855.0,286047000.6,N
1548472855.9,286047000.6,N
1548472875.1,286046999.8,N
1548472876.0,286046999.8,N
1548472895.8,286047001.6,N
1548472915.7,286047000.3,N
1548472935.5,286047000.3,N
1548472955.3,286047000.4,N
1548472975.2,286047000.9,N
1548472995.0,286047001.0,N
1548472995.9,286047001.0,N
1548473015.8,286047000.2,N
1548473035.6,286046999.7,N
1548473055.4,286047001.0,N
1548473075.3,286046996.5,N
1548473095.1,286046999.2,N
1548473115.8,286046999.4,N
1548473135.7,286047000.4,N
1548473155.5,286046998.4,N
1548473175.4,286046998.8,N
1548473195.2,286046998.5,N
1548473215.0,286046998.7,N
1548473215.9,286046998.7,N
1548473235.8,286047000.9,N
1548473255.6,286047000.3,N
1548473275.5,286046999.8,N
1548473295.3,286047002.6,N
1548473315.1,286047001.9,N
1548473335.9,286047002.4,N
1548473355.7,286047002.3,N
1548473375.5,286046999.9,N
1548473395.4,286047000.7,N
1548473415.2,286046998.5,N
1548473435.1,286046999.7,N
1548473436.0,286046999.7,N
1548473455.8,286047001.6,N
1548473475.6,286047001.6,N
1548473495.5,286047001.5,N
1548473515.3,286047001.6,N
1548473535.1,286047001.3,N
1548473555.9,286047001.9,N
1548473575.7,286047001.9,N
1548473595.6,286047002.3,N
1548473615.4,286047002.6,N
1548473635.2,286047002.7,N
1548473655.1,286047000.0,N
1548473656.0,286047000.0,N
1548473675.8,286046998.8,N
1548473695.6,286046999.3,N
1548473715.5,286046996.7,N
1548473735.3,286046999.6,N
1548473755.2,286046998.6,N
1548473775.9,286047002.4,N
1548473795.7,286047001.3,N
1548473815.6,286047001.3,N
1548473835.4,286047001.8,N
1548473855.2,286047004.1,N
1548473875.1,286047004.4,N
1548473876.0,286047004.4,N
1548473895.8,286047002.1,N
1548473915.7,286047002.8,N
1548473935.5,286047000.0,N
1548473955.3,286047002.1,N
1548473975.2,286046998.1,N
1548473995.0,286046998.9,N
1548473995.9,286046998.9,N
1548474015.8,286047000.7,N
1548474035.6,286047002.6,N
1548474055.4,286047002.7,N
1548474075.3,286046998.5,N
1548474095.1,286047000.5,N
1548474115.8,286047001.2,N
1548474135.7,286046999.5,N
1548474155.5,286047000.7,N
1548474175.4,286047000.3,N
1548474195.2,286046998.6,N
1548474215.0,286047002.7,N
1548474215.9,286047002.7,N
1548474235.8,286046999.7,N
1548474255.6,286046999.8,N
1548474275.4,286047000.1,N
1548474295.3,286047002.1,N
1548474315.1,286047002.0,N
1548474335.8,286047001.9,N
1548474355.6,286047004.4,N
1548474375.4,286046999.8,N
1548474395.3,286046999.8,N
1548474415.1,286047002.4,N
1548474416.0,286047002.4,N
1548474435.8,286047000.2,N
1548474455.7,286047000.2,N
1548474475.5,286047000.1,N
1548474495.3,286047002.0,N
1548474515.2,286047002.6,N
1548474535.0,286047000.6,N
1548474535.9,286047000.6,N
1548474555.8,286047001.0,N
1548474575.6,286046999.9,N
1548474595.4,286047000.1,N
1548474615.3,286047002.2,N
1548474635.1,286047002.8,N
1548474655.8,286047000.6,N
1548474675.7,286047000.7,N
1548474695.5,286047000.6,N
1548474715.5,286047000.2,N
1548474735.3,286047000.0,N
1548474755.1,286047001.7,N
1548474775.9,286047001.6,N
1548474795.7,286047001.4,N
1548474815.6,286047004.0,Y
1548474835.4,286047001.5,P
1548474855.2,286047002.7,P
1548474875.1,286047001.9,N
1548474876.0,286047001.9,Y
1548474895.5,286046998.9,P
1548474915.3,286046999.4,N
1548474935.1,286046998.7,N
1548474955.9,286046999.6,N
1548474975.7,286046997.6,N
1548474995.6,286046997.8,N
1548475015.4,286046996.6,N
1548475035.2,286046997.9,N
1548475055.1,286046995.5,Y
1548475056.0,286046995.5,P
1548475075.8,286046997.2,N
1548475095.7,286046996.9,N
1548475115.5,286046997.9,N
1548475135.3,286046997.9,N
1548475155.2,286046996.8,Y
1548475175.0,286047002.6,P
1548475175.9,286047002.6,N
1548475195.7,286047001.4,N
